This is the latest recevied weather packets stored in our database for station/object I3LPO-3. If no packets are shown the sender has not sent any weather packets the latest 10 day(s).
| Time | Temp. | Humidity | Pressure | Rain* | Wind** | Luminosity | Snow |
|---|---|---|---|---|---|---|---|
| 1777163487 | 14.44° C | 44% | 1017.2 hPa | - | - | - | - |
| 1777162286 | 14.44° C | 44% | 1017.4 hPa | - | - | - | - |
| 1777161084 | 15° C | 44% | 1017.4 hPa | - | - | - | - |
| 1777159883 | 15° C | 44% | 1017.4 hPa | - | - | - | - |
| 1777158682 | 15.56° C | 44% | 1017.3 hPa | - | - | - | - |
| 1777157481 | 15.56° C | 44% | 1017.3 hPa | - | - | - | - |
| 1777156279 | 15.56° C | 44% | 1017.3 hPa | - | - | - | - |
| 1777155078 | 16.11° C | 44% | 1017.3 hPa | - | - | - | - |
| 1777153877 | 16.11° C | 44% | 1017.2 hPa | - | - | - | - |
| 1777152675 | 16.67° C | 44% | 1017.3 hPa | - | - | - | - |
| 1777151474 | 16.67° C | 44% | 1017.1 hPa | - | - | - | - |
| 1777150273 | 17.22° C | 44% | 1017.1 hPa | - | - | - | - |
| 1777149071 | 17.22° C | 44% | 1017 hPa | - | - | - | - |
| 1777147870 | 17.78° C | 44% | 1016.8 hPa | - | - | - | - |
| 1777146669 | 17.78° C | 44% | 1016.7 hPa | - | - | - | - |
| 1777145468 | 18.33° C | 44% | 1016.6 hPa | - | - | - | - |
| 1777144266 | 18.33° C | 44% | 1016.2 hPa | - | - | - | - |
| 1777143065 | 18.89° C | 45% | 1015.9 hPa | - | - | - | - |
| 1777141864 | 19.44° C | 45% | 1015.4 hPa | - | - | - | - |
| 1777140663 | 20° C | 45% | 1015.1 hPa | - | - | - | - |
| 1777139461 | 20.56° C | 45% | 1014.7 hPa | - | - | - | - |
| 1777138260 | 21.11° C | 44% | 1014.5 hPa | - | - | - | - |
| 1777137059 | 21.11° C | 44% | 1014.4 hPa | - | - | - | - |
| 1777135857 | 21.11° C | 44% | 1014.4 hPa | - | - | - | - |
| 1777134656 | 21.67° C | 44% | 1014.2 hPa | - | - | - | - |
* Rain since midnight (hover to see other rain measurements)
** Current wind speed in m/s (hover to see current wind gust speed)